Location: Rounton
(54.4000°N, 1.3500°W)
Time: 14:15:34
(UTC+00:00)

Transit 2A Rocket - Pass Details

Date: 03 December 2021
Orbit: 584 x 918 km, 66.7° (Epoch: 17 January)

Event Time Altitude Azimuth Distance (km) Brightness Sun altitude
Rises 15:40:55 0° 317° (NW) 3,566 8.5 -0.5°
Reaches altitude 10° 15:43:29 10° 318° (NW) 2,622 7.8 -0.8°
Maximum altitude 15:49:40 87° 47° (NE) 912 5.4 -1.5°
Drops below altitude 10° 15:55:35 10° 139° (SE) 2,510 7.6 -2.2°
Sets 15:57:59 0° 139° (SE) 3,405 8.3 -2.5°
